�N����,����,�~����,�C��,���x,�C��,����,���ϕ���,�ő�u�ԕ���,�ő厞����,���˗�,�I�_���x,�n�����x,�ő啗���N��,DTYPE
"23/06/19","00:10",0.0,22.1,70.2,999.8,340.4,2.5,4.8,346.3,0.00,16.5,21.4,"00:05:28",1
"23/06/19","00:20",0.0,22.2,69.8,999.3,335.7,2.8,4.8,344.6,0.00,16.5,21.5,"00:13:28",1
"23/06/19","00:30",0.0,22.3,69.0,999.6,332.9,2.8,4.2,347.0,0.00,16.4,21.5,"00:29:52",1
"23/06/19","00:40",0.0,22.2,69.3,999.6,338.1,2.6,4.3,330.0,0.00,16.4,21.5,"00:32:00",1
"23/06/19","00:50",0.0,21.5,71.7,999.6,337.7,2.1,3.6,338.7,0.00,16.2,21.4,"00:40:02",1
"23/06/19","01:00",0.0,21.2,73.7,1000.0,335.3,1.7,2.9,335.7,0.00,16.4,21.4,"00:54:48",1
"23/06/19","01:10",0.0,20.8,75.1,999.6,335.6,1.8,2.9,353.5,0.00,16.3,21.4,"01:07:20",1
"23/06/19","01:20",0.0,20.9,75.4,999.8,325.9,1.8,3.1,326.3,0.00,16.4,21.3,"01:19:36",1
"23/06/19","01:30",0.0,21.0,75.1,999.6,328.3,2.1,2.9,331.9,0.00,16.5,21.3,"01:20:08",1
"23/06/19","01:40",0.0,21.3,74.3,999.6,323.3,2.2,3.3,319.5,0.00,16.6,21.4,"01:32:08",1
"23/06/19","01:50",0.0,21.3,74.0,999.6,323.1,2.5,4.0,326.6,0.00,16.5,21.4,"01:45:36",1
"23/06/19","02:00",0.0,21.4,74.0,999.3,330.5,3.0,5.2,337.9,0.00,16.6,21.2,"01:55:12",1
"23/06/19","02:10",0.0,21.4,74.2,999.3,334.6,3.0,5.5,342.4,0.00,16.7,21.1,"02:09:12",1
"23/06/19","02:20",0.0,21.1,74.8,999.6,336.1,3.1,4.7,346.3,0.00,16.5,21.3,"02:18:56",1
"23/06/19","02:30",0.0,21.2,75.2,999.3,337.5,3.7,5.0,341.0,0.00,16.7,21.2,"02:21:20",1
"23/06/19","02:40",0.0,21.0,75.6,999.1,333.7,3.6,5.7,341.9,0.00,16.6,21.2,"02:35:12",1
"23/06/19","02:50",0.0,20.9,76.1,998.9,332.2,4.2,6.3,319.3,0.00,16.6,21.0,"02:48:56",1
"23/06/19","03:00",0.0,20.8,76.7,999.3,333.1,3.7,5.2,339.0,0.00,16.6,21.0,"02:50:56",1
"23/06/19","03:10",0.0,20.6,77.7,999.3,334.9,3.5,5.4,338.9,0.00,16.6,21.0,"03:03:36",1
"23/06/19","03:20",0.0,20.7,78.2,999.1,333.6,3.4,5.1,338.7,0.00,16.8,21.0,"03:17:12",1
"23/06/19","03:30",0.0,20.7,78.3,999.3,327.8,3.1,4.2,329.4,0.00,16.8,20.9,"03:27:04",1
"23/06/19","03:40",0.0,20.3,78.9,999.3,330.5,2.6,4.2,320.1,0.00,16.6,21.0,"03:35:44",1
"23/06/19","03:50",0.0,19.9,80.1,999.1,328.8,2.3,3.7,345.4,0.00,16.4,21.0,"03:48:08",1
"23/06/19","04:00",0.0,19.4,81.7,999.6,325.0,2.0,3.4,328.8,0.00,16.2,20.8,"03:54:48",1
"23/06/19","04:10",0.0,19.1,83.1,999.1,324.7,2.0,3.3,326.8,0.00,16.2,20.8,"04:02:08",1
"23/06/19","04:20",0.0,19.0,84.2,999.6,322.2,1.8,2.7,323.2,0.00,16.3,20.8,"04:14:00",1
"23/06/19","04:30",0.0,19.2,84.6,999.3,322.3,2.1,3.6,330.5,0.00,16.6,20.9,"04:25:12",1
"23/06/19","04:40",0.0,19.4,84.4,999.3,323.2,2.2,3.3,329.2,0.00,16.7,20.8,"04:34:40",1
"23/06/19","04:50",0.0,19.5,84.3,999.3,318.5,2.5,4.0,326.3,0.00,16.8,20.7,"04:42:48",1
"23/06/19","05:00",0.0,19.6,84.1,999.6,330.6,2.7,4.4,343.9,0.00,16.9,20.7,"04:57:44",1
"23/06/19","05:10",0.0,19.6,83.9,999.6,332.5,2.8,5.1,321.1,0.00,16.8,20.7,"05:02:00",1
"23/06/19","05:20",0.0,19.6,83.9,999.3,333.1,3.0,5.2,342.6,0.00,16.8,20.7,"05:13:44",1
"23/06/19","05:30",0.0,19.5,84.1,999.3,333.7,2.5,3.9,334.2,0.00,16.8,20.7,"05:20:40",1
"23/06/19","05:40",0.0,19.5,84.3,999.6,336.7,2.3,4.2,312.5,0.00,16.8,20.7,"05:34:16",1
"23/06/19","05:50",0.0,19.5,84.6,999.3,334.2,2.6,4.8,332.7,0.00,16.9,20.7,"05:49:36",1
"23/06/19","06:00",0.0,19.5,84.6,999.8,336.8,2.8,4.2,340.6,0.00,16.9,20.6,"05:52:32",1
"23/06/19","06:10",0.0,19.6,84.6,999.6,333.5,3.2,4.9,328.7,0.00,17.0,20.6,"06:02:08",1
"23/06/19","06:20",0.0,19.7,84.4,1000.0,331.2,3.2,5.9,340.3,0.00,17.0,20.6,"06:15:20",1
"23/06/19","06:30",0.0,19.9,84.0,999.8,332.6,3.5,4.7,336.6,0.01,17.2,20.7,"06:21:44",1
"23/06/19","06:40",0.0,20.1,83.6,999.6,334.6,2.5,4.1,327.0,0.02,17.3,20.6,"06:30:16",1
"23/06/19","06:50",0.0,20.3,83.5,1000.0,339.2,1.8,2.9,341.6,0.04,17.5,20.4,"06:40:24",1
"23/06/19","07:00",0.0,20.8,82.8,999.6,335.7,1.7,3.4,349.2,0.05,17.8,20.5,"06:54:24",1
"23/06/19","07:10",0.0,21.4,81.6,1000.0,321.7,1.0,2.1,344.7,0.07,18.2,20.5,"07:00:32",1
"23/06/19","07:20",0.0,21.8,79.1,1000.5,264.4,1.0,1.8,247.0,0.08,18.1,20.5,"07:14:56",1
"23/06/19","07:30",0.0,22.3,76.7,999.6,254.0,1.3,2.2,231.6,0.10,18.1,20.5,"07:21:04",1
"23/06/19","07:40",0.0,23.2,74.8,999.8,300.4,0.5,1.4,247.7,0.12,18.5,20.2,"07:30:16",1
"23/06/19","07:50",0.0,23.6,71.5,999.3,342.7,2.0,5.2,355.9,0.14,18.2,20.4,"07:49:36",1
"23/06/19","08:00",0.0,23.8,72.0,999.3,342.6,2.2,4.8,348.9,0.16,18.5,20.5,"07:52:56",1
"23/06/19","08:10",0.0,23.9,71.5,999.3,341.8,2.7,5.4,356.5,0.19,18.5,20.5,"08:04:16",1
"23/06/19","08:20",0.0,24.5,70.0,999.6,344.2,1.7,4.1,353.3,0.21,18.7,20.6,"08:13:12",1
"23/06/19","08:30",0.0,25.2,66.6,999.3,354.5,1.3,2.5,341.3,0.23,18.6,20.5,"08:20:56",1
"23/06/19","08:40",0.0,25.5,65.7,999.3,356.4,1.5,3.5,1.8,0.25,18.7,20.6,"08:34:32",1
"23/06/19","08:50",0.0,25.3,66.0,999.1,342.4,2.0,4.0,336.8,0.29,18.5,20.6,"08:43:52",1
"23/06/19","09:00",0.0,25.3,66.8,999.1,346.4,2.2,4.5,342.3,0.30,18.7,20.5,"08:58:48",1
"23/06/19","09:10",0.0,25.0,66.6,999.1,324.1,2.1,5.1,340.5,0.24,18.4,20.5,"09:08:40",1
"23/06/19","09:20",0.0,25.7,66.7,998.4,343.7,1.6,5.1,351.7,0.33,19.1,20.5,"09:18:24",1
"23/06/19","09:30",0.0,25.6,65.8,998.6,326.1,2.1,4.0,332.7,0.39,18.8,20.7,"09:22:32",1
"23/06/19","09:40",0.0,25.9,65.7,998.4,292.7,1.5,3.2,225.3,0.37,19.0,20.6,"09:33:04",1
"23/06/19","09:50",0.0,26.2,65.5,998.6,279.8,1.6,3.4,233.4,0.42,19.3,20.6,"09:44:16",1
"23/06/19","10:00",0.0,26.2,65.2,999.1,314.0,2.0,4.9,343.0,0.46,19.2,20.8,"09:51:44",1
"23/06/19","10:10",0.0,26.2,64.2,998.9,300.2,1.6,4.0,346.2,0.38,18.9,20.8,"10:06:24",1
"23/06/19","10:20",0.0,26.1,64.4,998.6,270.5,2.0,3.9,308.4,0.40,18.9,20.6,"10:15:52",1
"23/06/19","10:30",0.0,26.9,61.6,999.1,324.3,1.8,3.7,351.4,0.50,18.9,20.8,"10:29:52",1
"23/06/19","10:40",0.0,26.1,63.8,998.6,329.9,2.5,3.9,351.5,0.33,18.8,20.9,"10:33:12",1
"23/06/19","10:50",0.0,27.0,61.4,998.4,311.0,2.0,4.7,345.5,0.52,19.0,21.0,"10:46:08",1
"23/06/19","11:00",0.0,27.1,60.1,998.6,338.8,2.8,5.6,346.8,0.55,18.7,20.9,"10:57:20",1
"23/06/19","11:10",0.0,27.8,59.5,999.1,336.5,2.1,4.1,316.2,0.55,19.2,20.9,"11:00:48",1
"23/06/19","11:20",0.0,27.6,58.1,999.1,336.2,2.2,4.8,352.0,0.53,18.7,21.2,"11:19:20",1
"23/06/19","11:30",0.0,27.9,56.6,998.9,350.5,2.3,4.4,324.5,0.53,18.5,20.9,"11:22:08",1
"23/06/19","11:40",0.0,27.9,56.9,998.9,356.0,2.8,6.0,356.7,0.53,18.6,20.9,"11:34:56",1
"23/06/19","11:50",0.0,28.3,56.3,999.1,350.3,2.3,4.9,346.9,0.55,18.8,21.1,"11:48:56",1
"23/06/19","12:00",0.0,28.4,55.4,998.9,11.0,2.6,4.5,319.2,0.55,18.6,21.2,"11:51:52",1
"23/06/19","12:10",0.0,29.1,55.3,998.6,1.5,2.1,4.8,358.7,0.57,19.3,21.2,"12:00:08",1
"23/06/19","12:20",0.0,29.6,55.8,999.1,5.5,2.0,5.0,351.1,0.61,19.9,21.2,"12:10:24",1
"23/06/19","12:30",0.0,28.9,53.8,998.9,349.7,2.6,5.6,344.4,0.54,18.6,21.4,"12:25:28",1
"23/06/19","12:40",0.0,29.2,53.5,999.1,358.3,2.3,5.7,1.0,0.59,18.8,21.1,"12:31:12",1
"23/06/19","12:50",0.0,29.4,54.3,998.9,350.5,2.0,4.8,338.8,0.58,19.3,21.5,"12:40:48",1
"23/06/19","13:00",0.0,29.0,53.1,998.6,10.2,2.2,6.0,27.9,0.48,18.5,21.5,"12:59:12",1
"23/06/19","13:10",0.0,29.5,53.1,998.4,339.5,2.1,4.9,353.7,0.57,19.0,21.5,"13:04:08",1
"23/06/19","13:20",0.0,29.4,51.6,998.4,332.0,2.6,7.3,335.5,0.58,18.4,21.7,"13:17:20",1
"23/06/19","13:30",0.0,29.9,50.2,998.4,0.3,2.2,4.3,7.2,0.58,18.5,21.7,"13:27:20",1
"23/06/19","13:40",0.0,29.8,53.2,998.4,339.6,2.1,5.4,346.8,0.54,19.3,21.8,"13:37:36",1
"23/06/19","13:50",0.0,29.9,50.3,998.4,335.3,2.2,5.5,330.4,0.56,18.5,21.7,"13:48:08",1
"23/06/19","14:00",0.0,29.6,50.2,997.9,336.9,3.1,6.5,327.3,0.55,18.2,22.0,"13:58:56",1
"23/06/19","14:10",0.0,29.6,50.5,998.2,349.1,3.1,7.3,337.5,0.54,18.3,21.8,"14:03:28",1
"23/06/19","14:20",0.0,29.6,50.8,998.2,343.8,2.7,5.1,348.1,0.54,18.4,21.8,"14:17:52",1
"23/06/19","14:30",0.0,29.9,49.5,998.4,10.2,2.5,5.8,31.6,0.53,18.2,22.0,"14:27:04",1
"23/06/19","14:40",0.0,29.8,48.3,997.9,352.8,2.7,5.6,351.8,0.51,17.8,22.1,"14:30:32",1
"23/06/19","14:50",0.0,29.8,48.4,998.2,351.2,2.7,7.2,345.5,0.50,17.8,22.0,"14:46:56",1
"23/06/19","15:00",0.0,29.7,47.7,997.9,349.6,2.6,6.2,1.5,0.49,17.5,22.1,"14:52:32",1
"23/06/19","15:10",0.0,29.8,47.5,998.2,343.4,2.7,5.7,341.0,0.47,17.5,21.9,"15:05:12",1
"23/06/19","15:20",0.0,29.9,47.9,998.2,346.9,2.3,5.1,340.8,0.46,17.7,22.2,"15:19:04",1
"23/06/19","15:30",0.0,29.7,47.9,997.9,346.9,2.7,6.7,354.7,0.44,17.5,22.2,"15:29:12",1
"23/06/19","15:40",0.0,29.0,48.7,997.4,350.0,3.5,7.0,326.5,0.43,17.2,22.2,"15:36:08",1
"23/06/19","15:50",0.0,28.5,47.3,997.2,347.8,3.9,8.3,319.1,0.41,16.2,22.4,"15:48:48",1
"23/06/19","16:00",0.0,28.1,49.2,997.0,348.0,4.2,8.1,320.3,0.39,16.5,22.2,"15:56:08",1
"23/06/19","16:10",0.0,28.1,49.9,997.0,340.5,4.0,8.8,347.7,0.37,16.7,22.3,"16:09:52",1
"23/06/19","16:20",0.0,28.1,51.2,997.4,342.4,3.9,8.1,333.4,0.34,17.1,22.3,"16:14:32",1
"23/06/19","16:30",0.0,27.7,50.7,997.2,340.3,4.1,7.8,330.3,0.32,16.6,22.6,"16:23:36",1
"23/06/19","16:40",0.0,27.8,53.9,996.7,340.0,3.6,7.5,321.6,0.30,17.7,22.1,"16:30:56",1
"23/06/19","16:50",0.0,27.5,52.4,996.7,334.5,4.1,8.5,324.0,0.28,16.9,22.6,"16:44:08",1
"23/06/19","17:00",0.0,27.4,53.6,996.7,345.7,3.9,9.6,345.3,0.26,17.2,22.4,"16:50:02",1
"23/06/19","17:10",0.0,27.2,54.1,997.2,345.0,3.7,7.4,322.4,0.24,17.2,22.4,"17:01:36",1
"23/06/19","17:20",0.0,27.0,54.3,997.4,344.6,3.7,6.4,342.8,0.22,17.0,22.5,"17:11:44",1
"23/06/19","17:30",0.0,27.0,54.9,997.4,349.8,3.1,8.7,348.2,0.19,17.2,22.4,"17:20:08",1
"23/06/19","17:40",0.0,26.7,55.3,997.9,347.4,3.2,7.3,354.4,0.06,17.0,22.3,"17:37:36",1
"23/06/19","17:50",0.0,26.2,55.3,997.9,344.3,3.9,7.7,350.7,0.02,16.6,22.4,"17:48:08",1
"23/06/19","18:00",0.0,26.0,56.9,998.2,349.5,3.5,7.2,353.7,0.01,16.8,22.3,"17:55:04",1
"23/06/19","18:10",0.0,25.9,57.7,997.9,345.6,3.2,6.7,331.6,0.01,17.0,22.3,"18:00:40",1
"23/06/19","18:20",0.0,26.0,57.4,998.2,342.6,2.6,4.9,354.8,0.01,17.0,22.5,"18:11:20",1
"23/06/19","18:30",0.0,25.8,58.6,998.4,341.8,2.7,5.9,349.8,0.01,17.1,22.5,"18:26:32",1
"23/06/19","18:40",0.0,25.5,56.6,998.6,348.8,2.7,5.1,343.7,0.01,16.3,22.6,"18:36:16",1
"23/06/19","18:50",0.0,24.9,56.8,998.6,340.6,3.2,6.4,340.3,0.00,15.8,22.5,"18:46:00",1
"23/06/19","19:00",0.0,24.7,56.2,998.9,350.2,3.0,7.3,330.6,0.01,15.4,22.2,"18:51:36",1
"23/06/19","19:10",0.0,24.5,55.9,999.1,340.7,2.5,4.7,322.2,0.01,15.2,22.3,"19:03:52",1
"23/06/19","19:20",0.0,24.2,57.7,999.3,342.1,2.6,5.2,333.1,0.00,15.4,22.3,"19:12:24",1
"23/06/19","19:30",0.0,23.7,58.9,999.3,337.7,3.0,5.9,333.8,0.00,15.2,22.2,"19:22:00",1
"23/06/19","19:40",0.0,23.1,60.7,999.3,340.1,2.3,6.6,346.0,0.00,15.1,22.2,"19:31:36",1
"23/06/19","19:50",0.0,22.8,61.5,999.6,329.2,2.0,3.5,345.7,0.00,15.1,22.1,"19:40:48",1
"23/06/19","20:00",0.0,22.5,62.3,999.8,311.6,1.7,3.1,321.7,0.00,15.0,22.2,"19:52:08",1
"23/06/19","20:10",0.0,22.1,63.2,999.8,319.9,2.0,4.0,336.1,0.00,14.8,22.1,"20:00:08",1
"23/06/19","20:20",0.0,22.1,63.9,999.6,323.7,3.0,5.2,347.3,0.00,15.0,22.1,"20:19:36",1
"23/06/19","20:30",0.0,21.9,64.5,1000.3,336.3,3.1,5.5,324.5,0.00,14.9,22.1,"20:29:36",1
"23/06/19","20:40",0.0,21.7,65.2,1000.3,323.6,2.5,5.0,338.3,0.00,14.9,21.9,"20:32:56",1
"23/06/19","20:50",0.0,21.6,66.3,1000.5,317.4,2.0,4.2,349.6,0.00,15.1,21.9,"20:48:16",1
"23/06/19","21:00",0.0,21.3,67.3,1000.5,336.9,2.1,4.2,345.1,0.00,15.0,21.9,"20:50:16",1
"23/06/19","21:10",0.0,21.2,68.3,1000.8,320.6,1.7,3.1,337.6,0.00,15.2,21.8,"21:04:16",1
"23/06/19","21:20",0.0,21.1,69.4,1001.0,333.4,2.3,4.2,342.1,0.00,15.3,21.8,"21:12:00",1
"23/06/19","21:30",0.0,21.0,70.1,1001.0,330.3,2.5,5.4,343.1,0.00,15.4,21.7,"21:27:36",1
"23/06/19","21:40",0.0,20.9,70.6,1001.0,325.9,2.0,3.7,322.7,0.00,15.4,21.7,"21:39:12",1
"23/06/19","21:50",0.0,20.8,71.4,1001.2,329.4,1.8,4.7,312.1,0.00,15.5,21.7,"21:41:52",1
"23/06/19","22:00",0.0,20.7,72.4,1001.2,337.9,1.8,3.9,328.9,0.00,15.6,21.7,"21:58:48",1
"23/06/19","22:10",0.0,20.4,73.6,1001.0,329.7,1.6,3.9,343.9,0.00,15.6,21.7,"22:09:36",1
"23/06/19","22:20",0.0,20.4,74.5,1001.2,327.4,2.0,4.2,303.1,0.00,15.8,21.5,"22:16:08",1
"23/06/19","22:30",0.0,20.2,75.1,1001.2,307.6,1.5,3.5,326.0,0.00,15.7,21.6,"22:27:36",1
"23/06/19","22:40",0.0,20.2,75.0,1001.9,282.7,1.3,2.4,315.1,0.00,15.7,21.6,"22:38:08",1
"23/06/19","22:50",0.0,19.9,75.1,1001.9,275.8,1.0,1.9,336.0,0.00,15.4,21.3,"22:43:44",1
"23/06/19","23:00",0.0,19.4,75.8,1002.2,287.6,0.8,1.7,317.7,0.00,15.1,21.5,"22:58:24",1
"23/06/19","23:10",0.0,19.3,76.9,1002.4,298.1,1.2,2.1,328.6,0.00,15.2,21.6,"23:08:08",1
"23/06/19","23:20",0.0,19.3,77.8,1002.2,313.6,1.5,2.9,325.9,0.00,15.4,21.3,"23:18:32",1
"23/06/19","23:30",0.0,19.6,78.0,1001.9,316.2,1.8,3.5,332.2,0.00,15.7,21.2,"23:22:48",1
"23/06/19","23:40",0.0,19.7,77.9,1002.2,304.6,1.6,2.8,322.9,0.00,15.8,21.2,"23:39:04",1
"23/06/19","23:50",0.0,19.6,77.8,1002.4,325.7,1.6,2.6,337.2,0.00,15.7,21.1,"23:45:52",1
"23/06/19","24:00",0.0,19.5,78.0,1002.2,339.1,1.5,2.8,339.5,0.00,15.6,21.1,"23:58:40",1
